Cosmos 2026 Rocket - Orbit

View from above orbital plane
View from above orbital plane
View from above satellite
View from above satellite

Ground track
Ground track

The orbit data is extracted from the following two-line orbital elements,

1 20046U 89042B   13142.69723815  .00000104  00000-0  88711-4 0  1230
2 20046 082.9371 330.7682 0040668 275.8146 132.2254 13.77903427204536
Epoch (UTC): 22 May 2013 16:44:01
Eccentricity: 0.0040668
inclination: 82.9371°
perigee height: 941 km
apogee height: 1001 km
right ascension of ascending node: 330.7682°
argument of perigee: 275.8146°
revolutions per day: 13.77903427
mean anomaly at epoch: 132.2254°
orbit number at epoch: 20453

The dashed part of the orbit path shows where the satellite is in the earth's shadow,  

Developed and maintained by Chris Peat, Heavens-Above GmbH. Please read the updated FAQ before sending e-mail. Imprint. DLR